TNO1122 MMTJ-KPHX

Flight info

Callsign TNO1122
Flight time 1h 1m
Altitude 19000
Route TIJ UJ7 URSIX
Aircraft AT75/M-SDFGIRY/S

Departure

Time 2026-05-06 11:15
Airport General Abelardo L. Rodriguez International Airport (MMTJ)

Arrival

Time 2026-05-06 12:16
Airport Phoenix Sky Harbor International Airport (KPHX)
Time Latitude Longitude Altitude Speed Heading
2026-05-06 11:05 32.54425 -116.97331 497 ft 0 kts 111°
2026-05-06 11:09 32.54425 -116.97330 497 ft 0 kts 111°
2026-05-06 11:10 32.54424 -116.97330 497 ft 0 kts 111°
2026-05-06 11:10 32.54425 -116.97333 497 ft 1 kts 112°
2026-05-06 11:10 32.54436 -116.97345 497 ft 3 kts 154°
2026-05-06 11:11 32.54455 -116.97351 497 ft 3 kts 176°
2026-05-06 11:11 32.54467 -116.97351 497 ft 1 kts 188°
2026-05-06 11:11 32.54438 -116.97380 497 ft 11 kts 248°
2026-05-06 11:11 32.54436 -116.97477 497 ft 13 kts 278°
2026-05-06 11:12 32.54452 -116.97608 497 ft 17 kts 280°
2026-05-06 11:12 32.54469 -116.97726 497 ft 13 kts 274°
2026-05-06 11:12 32.54423 -116.97796 497 ft 6 kts 260°
2026-05-06 11:12 32.54432 -116.97892 497 ft 16 kts 279°
2026-05-06 11:13 32.54451 -116.98042 497 ft 20 kts 278°
2026-05-06 11:13 32.54471 -116.98188 497 ft 18 kts 279°
2026-05-06 11:13 32.54490 -116.98332 497 ft 16 kts 278°
2026-05-06 11:13 32.54505 -116.98462 497 ft 15 kts 265°
2026-05-06 11:14 32.54446 -116.98504 497 ft 14 kts 189°
2026-05-06 11:14 32.54348 -116.98521 497 ft 14 kts 188°
2026-05-06 11:14 32.54306 -116.98504 497 ft 6 kts 112°
2026-05-06 11:14 32.54305 -116.98498 497 ft 0 kts 99°
2026-05-06 11:15 32.54269 -116.98232 497 ft 99 kts 99°
2026-05-06 11:15 32.54114 -116.97053 553 ft 171 kts 99°
2026-05-06 11:15 32.53915 -116.95591 1108 ft 189 kts 100°
2026-05-06 11:16 32.53840 -116.93995 1621 ft 199 kts 89°
2026-05-06 11:16 32.53936 -116.92194 2075 ft 234 kts 84°
2026-05-06 11:16 32.54038 -116.90892 2430 ft 241 kts 83°
2026-05-06 11:16 32.54213 -116.88894 2932 ft 246 kts 83°
2026-05-06 11:17 32.54390 -116.86904 3412 ft 242 kts 83°
2026-05-06 11:17 32.54555 -116.84923 3911 ft 238 kts 84°
2026-05-06 11:17 32.54705 -116.82997 4406 ft 234 kts 84°
2026-05-06 11:17 32.54844 -116.81079 4904 ft 231 kts 84°
2026-05-06 11:18 32.54972 -116.79191 5399 ft 228 kts 84°
2026-05-06 11:18 32.55091 -116.77327 5895 ft 226 kts 85°
2026-05-06 11:18 32.55206 -116.75482 6395 ft 222 kts 85°
2026-05-06 11:18 32.55315 -116.73666 6891 ft 220 kts 85°
2026-05-06 11:19 32.55421 -116.71870 7386 ft 217 kts 85°
2026-05-06 11:19 32.55524 -116.70097 7791 ft 219 kts 85°
2026-05-06 11:19 32.55631 -116.68264 8176 ft 226 kts 85°
2026-05-06 11:19 32.55740 -116.66377 8559 ft 232 kts 85°
2026-05-06 11:20 32.55886 -116.63813 9062 ft 238 kts 85°
2026-05-06 11:20 32.55962 -116.62484 9319 ft 240 kts 85°
2026-05-06 11:20 32.56073 -116.60526 9692 ft 242 kts 85°
2026-05-06 11:20 32.56186 -116.58531 10069 ft 244 kts 84°
2026-05-06 11:21 32.56300 -116.56520 10446 ft 245 kts 84°
2026-05-06 11:21 32.56414 -116.54506 10822 ft 245 kts 84°
2026-05-06 11:21 32.56528 -116.52486 11220 ft 246 kts 84°
2026-05-06 11:21 32.56645 -116.50444 11598 ft 250 kts 84°
2026-05-06 11:22 32.56759 -116.48428 11944 ft 250 kts 84°
2026-05-06 11:22 32.56876 -116.46329 12327 ft 249 kts 84°
2026-05-06 11:22 32.56990 -116.44285 12706 ft 248 kts 84°
2026-05-06 11:22 32.57100 -116.42246 13082 ft 248 kts 84°
2026-05-06 11:23 32.57214 -116.40204 13449 ft 248 kts 84°
2026-05-06 11:23 32.57328 -116.38179 13818 ft 247 kts 84°
2026-05-06 11:23 32.57436 -116.36143 14196 ft 246 kts 84°
2026-05-06 11:23 32.57542 -116.34137 14566 ft 246 kts 84°
2026-05-06 11:24 32.57649 -116.32113 14940 ft 246 kts 84°
2026-05-06 11:24 32.57757 -116.30104 15313 ft 246 kts 84°
2026-05-06 11:24 32.57870 -116.28077 15689 ft 246 kts 84°
2026-05-06 11:24 32.57984 -116.26046 16065 ft 246 kts 84°
2026-05-06 11:25 32.58095 -116.24035 16437 ft 246 kts 84°
2026-05-06 11:25 32.58207 -116.22001 16813 ft 246 kts 84°
2026-05-06 11:25 32.58316 -116.19998 17184 ft 246 kts 84°
2026-05-06 11:25 32.58427 -116.17962 17561 ft 246 kts 84°
2026-05-06 11:26 32.58536 -116.15949 17933 ft 246 kts 84°
2026-05-06 11:26 32.58645 -116.13920 18308 ft 246 kts 84°
2026-05-06 11:26 32.58753 -116.11905 18695 ft 248 kts 84°
2026-05-06 11:26 32.58866 -116.09813 18914 ft 260 kts 84°
2026-05-06 11:27 32.58981 -116.07612 18950 ft 272 kts 85°
2026-05-06 11:27 32.59099 -116.05351 18958 ft 281 kts 85°
2026-05-06 11:27 32.59222 -116.02983 18955 ft 289 kts 85°
2026-05-06 11:27 32.59347 -116.00594 18950 ft 295 kts 85°
2026-05-06 11:28 32.59475 -115.98130 18945 ft 300 kts 85°
2026-05-06 11:28 32.59600 -115.95658 18944 ft 304 kts 85°
2026-05-06 11:28 32.59729 -115.93156 18939 ft 307 kts 85°
2026-05-06 11:28 32.59861 -115.90604 18932 ft 310 kts 85°
2026-05-06 11:29 32.59998 -115.88045 18924 ft 308 kts 84°
2026-05-06 11:29 32.60239 -115.85565 18920 ft 303 kts 81°
2026-05-06 11:29 32.60596 -115.83108 18919 ft 299 kts 78°
2026-05-06 11:29 32.61017 -115.80728 18917 ft 294 kts 76°
2026-05-06 11:30 32.61478 -115.78383 18916 ft 290 kts 75°
2026-05-06 11:30 32.61963 -115.76078 18915 ft 286 kts 74°
2026-05-06 11:30 32.62462 -115.73806 18915 ft 283 kts 73°
2026-05-06 11:30 32.62967 -115.71554 18916 ft 281 kts 73°
2026-05-06 11:31 32.63475 -115.69327 18915 ft 279 kts 73°
2026-05-06 11:31 32.63989 -115.67106 18915 ft 278 kts 73°
2026-05-06 11:31 32.64501 -115.64904 18912 ft 277 kts 73°
2026-05-06 11:31 32.65013 -115.62705 18908 ft 275 kts 73°
2026-05-06 11:32 32.65516 -115.60548 18906 ft 275 kts 73°
2026-05-06 11:32 32.66025 -115.58362 18905 ft 274 kts 73°
2026-05-06 11:32 32.66532 -115.56187 18903 ft 273 kts 73°
2026-05-06 11:32 32.67038 -115.54016 18901 ft 273 kts 73°
2026-05-06 11:33 32.67543 -115.51844 18900 ft 273 kts 73°
2026-05-06 11:33 32.68047 -115.49675 18900 ft 272 kts 73°
2026-05-06 11:33 32.68550 -115.47509 18901 ft 272 kts 73°
2026-05-06 11:33 32.69053 -115.45341 18902 ft 272 kts 73°
2026-05-06 11:34 32.69555 -115.43175 18903 ft 272 kts 73°
2026-05-06 11:34 32.70056 -115.41012 18904 ft 272 kts 73°
2026-05-06 11:34 32.70557 -115.38842 18905 ft 272 kts 73°
2026-05-06 11:34 32.71052 -115.36704 18906 ft 272 kts 73°
2026-05-06 11:35 32.71552 -115.34537 18907 ft 272 kts 73°
2026-05-06 11:35 32.72051 -115.32371 18908 ft 272 kts 73°
2026-05-06 11:35 32.72549 -115.30196 18909 ft 271 kts 73°
2026-05-06 11:35 32.73045 -115.28032 18910 ft 271 kts 73°
2026-05-06 11:36 32.73535 -115.25872 18914 ft 270 kts 73°
2026-05-06 11:36 32.74018 -115.23742 18913 ft 270 kts 73°
2026-05-06 11:36 32.74511 -115.21591 18911 ft 270 kts 73°
2026-05-06 11:36 32.75007 -115.19437 18909 ft 270 kts 73°
2026-05-06 11:37 32.75503 -115.17288 18909 ft 270 kts 73°
2026-05-06 11:37 32.75996 -115.15139 18910 ft 269 kts 73°
2026-05-06 11:37 32.76490 -115.12988 18908 ft 269 kts 73°
2026-05-06 11:37 32.76980 -115.10840 18910 ft 269 kts 73°
2026-05-06 11:38 32.77472 -115.08694 18908 ft 269 kts 73°
2026-05-06 11:38 32.77960 -115.06559 18908 ft 270 kts 73°
2026-05-06 11:38 32.78455 -115.04389 18908 ft 271 kts 73°
2026-05-06 11:38 32.78945 -115.02242 18906 ft 271 kts 73°
2026-05-06 11:39 32.79441 -115.00073 18905 ft 271 kts 73°
2026-05-06 11:39 32.79932 -114.97919 18906 ft 272 kts 73°
2026-05-06 11:39 32.80428 -114.95741 18906 ft 272 kts 73°
2026-05-06 11:39 32.80916 -114.93582 18906 ft 273 kts 73°
2026-05-06 11:40 32.81408 -114.91391 18907 ft 273 kts 73°
2026-05-06 11:40 32.81902 -114.89199 18905 ft 274 kts 73°
2026-05-06 11:40 32.82396 -114.87028 18903 ft 274 kts 73°
2026-05-06 11:40 32.82895 -114.84831 18902 ft 274 kts 73°
2026-05-06 11:41 32.83393 -114.82644 18902 ft 274 kts 73°
2026-05-06 11:41 32.83886 -114.80470 18901 ft 273 kts 73°
2026-05-06 11:41 32.84380 -114.78287 18903 ft 273 kts 73°
2026-05-06 11:41 32.84869 -114.76117 18904 ft 273 kts 73°
2026-05-06 11:42 32.85360 -114.73925 18902 ft 273 kts 73°
2026-05-06 11:42 32.85849 -114.71756 18901 ft 274 kts 73°
2026-05-06 11:42 32.86345 -114.69557 18900 ft 274 kts 73°
2026-05-06 11:42 32.86840 -114.67355 18903 ft 274 kts 73°
2026-05-06 11:43 32.87329 -114.65166 18904 ft 275 kts 73°
2026-05-06 11:43 32.87824 -114.62961 18905 ft 275 kts 73°
2026-05-06 11:43 32.88314 -114.60778 18900 ft 275 kts 73°
2026-05-06 11:44 32.89300 -114.56387 18896 ft 275 kts 73°
2026-05-06 11:44 32.89795 -114.54181 18895 ft 276 kts 73°
2026-05-06 11:44 32.90291 -114.51965 18894 ft 275 kts 73°
2026-05-06 11:44 32.90774 -114.49790 18895 ft 275 kts 74°
2026-05-06 11:45 32.91263 -114.47592 18894 ft 275 kts 73°
2026-05-06 11:45 32.91757 -114.45391 18895 ft 275 kts 73°
2026-05-06 11:45 32.92250 -114.43190 18894 ft 275 kts 73°
2026-05-06 11:45 32.92741 -114.40986 18894 ft 275 kts 74°
2026-05-06 11:46 32.93227 -114.38786 18894 ft 275 kts 74°
2026-05-06 11:46 32.93707 -114.36583 18894 ft 275 kts 74°
2026-05-06 11:46 32.94186 -114.34411 18893 ft 275 kts 74°
2026-05-06 11:46 32.94674 -114.32208 18893 ft 275 kts 74°
2026-05-06 11:47 32.95163 -114.30004 18893 ft 275 kts 73°
2026-05-06 11:47 32.95652 -114.27801 18893 ft 275 kts 73°
2026-05-06 11:47 32.96140 -114.25601 18892 ft 275 kts 73°
2026-05-06 11:47 32.96628 -114.23399 18893 ft 275 kts 74°
2026-05-06 11:48 32.97115 -114.21196 18893 ft 275 kts 74°
2026-05-06 11:48 32.97602 -114.18988 18892 ft 275 kts 74°
2026-05-06 11:48 32.98087 -114.16788 18892 ft 274 kts 74°
2026-05-06 11:48 32.98571 -114.14592 18892 ft 274 kts 74°
2026-05-06 11:49 32.99053 -114.12397 18892 ft 274 kts 74°
2026-05-06 11:49 32.99535 -114.10204 18892 ft 274 kts 74°
2026-05-06 11:49 33.00016 -114.08011 18892 ft 273 kts 74°
2026-05-06 11:49 33.00496 -114.05821 18892 ft 273 kts 74°
2026-05-06 11:50 33.00976 -114.03624 18893 ft 274 kts 74°
2026-05-06 11:50 33.01449 -114.01460 18892 ft 273 kts 73°
2026-05-06 11:50 33.01933 -113.99242 18891 ft 273 kts 73°
2026-05-06 11:50 33.02415 -113.97044 18891 ft 275 kts 74°
2026-05-06 11:51 33.02891 -113.94867 18892 ft 275 kts 74°
2026-05-06 11:51 33.03374 -113.92655 18892 ft 275 kts 74°
2026-05-06 11:51 33.03856 -113.90443 18892 ft 276 kts 74°
2026-05-06 11:51 33.04338 -113.88229 18892 ft 276 kts 74°
2026-05-06 11:52 33.04820 -113.86009 18892 ft 276 kts 74°
2026-05-06 11:52 33.05302 -113.83783 18835 ft 276 kts 74°
2026-05-06 11:52 33.05781 -113.81577 18675 ft 280 kts 74°
2026-05-06 11:52 33.06273 -113.79310 18489 ft 283 kts 74°
2026-05-06 11:53 33.06767 -113.77031 18254 ft 287 kts 74°
2026-05-06 11:53 33.07274 -113.74690 18004 ft 291 kts 74°
2026-05-06 11:53 33.07775 -113.72371 17758 ft 293 kts 74°
2026-05-06 11:53 33.08288 -113.69997 17508 ft 294 kts 74°
2026-05-06 11:54 33.08796 -113.67644 17260 ft 296 kts 74°
2026-05-06 11:54 33.09312 -113.65248 17009 ft 297 kts 74°
2026-05-06 11:54 33.09822 -113.62881 16761 ft 297 kts 74°
2026-05-06 11:54 33.10336 -113.60493 16512 ft 298 kts 74°
2026-05-06 11:55 33.10852 -113.58086 16261 ft 298 kts 74°
2026-05-06 11:55 33.11360 -113.55721 16014 ft 298 kts 75°
2026-05-06 11:55 33.11874 -113.53325 15763 ft 297 kts 75°
2026-05-06 11:55 33.12385 -113.50935 15513 ft 297 kts 75°
2026-05-06 11:56 33.12895 -113.48550 15263 ft 297 kts 75°
2026-05-06 11:56 33.13404 -113.46165 15013 ft 296 kts 75°
2026-05-06 11:56 33.13911 -113.43786 14763 ft 296 kts 75°
2026-05-06 11:56 33.14416 -113.41410 14513 ft 295 kts 75°
2026-05-06 11:57 33.14921 -113.39041 14263 ft 294 kts 75°
2026-05-06 11:57 33.15422 -113.36671 14013 ft 294 kts 75°
2026-05-06 11:57 33.15924 -113.34304 13761 ft 291 kts 75°
2026-05-06 11:57 33.16421 -113.31969 13508 ft 287 kts 75°
2026-05-06 11:58 33.16904 -113.29693 13259 ft 284 kts 75°
2026-05-06 11:58 33.17383 -113.27438 13010 ft 281 kts 75°
2026-05-06 11:58 33.17860 -113.25190 12756 ft 275 kts 75°
2026-05-06 11:58 33.18321 -113.23011 12506 ft 270 kts 75°
2026-05-06 11:59 33.18782 -113.20836 12251 ft 266 kts 75°
2026-05-06 11:59 33.18984 -113.19880 12139 ft 264 kts 75°
2026-05-06 11:59 33.19189 -113.18911 12024 ft 263 kts 75°
2026-05-06 11:59 33.19634 -113.16806 11773 ft 260 kts 75°
2026-05-06 12:00 33.20074 -113.14717 11521 ft 258 kts 75°
2026-05-06 12:00 33.20511 -113.12645 11270 ft 256 kts 75°
2026-05-06 12:00 33.20945 -113.10589 11019 ft 254 kts 75°
2026-05-06 12:00 33.21375 -113.08548 10768 ft 253 kts 75°
2026-05-06 12:01 33.21803 -113.06509 10518 ft 253 kts 75°
2026-05-06 12:01 33.22229 -113.04480 10267 ft 251 kts 75°
2026-05-06 12:01 33.22649 -113.02481 10020 ft 251 kts 75°
2026-05-06 12:01 33.23073 -113.00458 9769 ft 250 kts 75°
2026-05-06 12:02 33.23496 -112.98439 9518 ft 250 kts 76°
2026-05-06 12:02 33.23917 -112.96424 9267 ft 250 kts 76°
2026-05-06 12:02 33.24339 -112.94403 9036 ft 252 kts 76°
2026-05-06 12:02 33.24766 -112.92361 8787 ft 254 kts 76°
2026-05-06 12:03 33.25193 -112.90313 8518 ft 253 kts 76°
2026-05-06 12:03 33.25616 -112.88284 8268 ft 251 kts 76°
2026-05-06 12:03 33.26034 -112.86279 8035 ft 252 kts 76°
2026-05-06 12:03 33.26458 -112.84241 7786 ft 253 kts 76°
2026-05-06 12:04 33.26880 -112.82212 7573 ft 250 kts 76°
2026-05-06 12:04 33.27300 -112.80222 7458 ft 248 kts 74°
2026-05-06 12:04 33.27820 -112.78258 7423 ft 247 kts 71°
2026-05-06 12:04 33.28440 -112.76346 7414 ft 245 kts 66°
2026-05-06 12:05 33.29148 -112.74523 7412 ft 242 kts 64°
2026-05-06 12:05 33.29898 -112.72716 7412 ft 241 kts 63°
2026-05-06 12:05 33.30659 -112.70933 7420 ft 242 kts 62°
2026-05-06 12:05 33.31170 -112.69744 7416 ft 243 kts 62°
2026-05-06 12:06 33.31949 -112.67943 7401 ft 243 kts 62°
2026-05-06 12:06 33.32721 -112.66159 7408 ft 240 kts 62°
2026-05-06 12:06 33.33487 -112.64391 7420 ft 239 kts 62°
2026-05-06 12:06 33.34256 -112.62617 7419 ft 240 kts 62°
2026-05-06 12:07 33.35027 -112.60841 7412 ft 240 kts 62°
2026-05-06 12:07 33.35794 -112.59073 7416 ft 239 kts 62°
2026-05-06 12:07 33.36556 -112.57318 7417 ft 238 kts 62°
2026-05-06 12:07 33.37318 -112.55562 7415 ft 237 kts 62°
2026-05-06 12:08 33.38076 -112.53816 7413 ft 236 kts 62°
2026-05-06 12:08 33.38836 -112.52066 7411 ft 236 kts 62°
2026-05-06 12:08 33.39582 -112.50349 7418 ft 236 kts 62°
2026-05-06 12:08 33.40344 -112.48594 7408 ft 239 kts 62°
2026-05-06 12:09 33.41113 -112.46822 7392 ft 239 kts 62°
2026-05-06 12:09 33.41878 -112.45057 7363 ft 232 kts 62°
2026-05-06 12:09 33.42471 -112.43433 7150 ft 203 kts 73°
2026-05-06 12:09 33.42732 -112.41821 6924 ft 199 kts 82°
2026-05-06 12:10 33.42868 -112.40121 6709 ft 209 kts 86°
2026-05-06 12:10 33.42941 -112.38388 6489 ft 212 kts 88°
2026-05-06 12:10 33.42975 -112.36764 6286 ft 214 kts 89°
2026-05-06 12:11 33.42982 -112.35785 6163 ft 215 kts 90°
2026-05-06 12:11 33.42976 -112.33987 5936 ft 215 kts 91°
2026-05-06 12:11 33.42953 -112.32185 5726 ft 215 kts 91°
2026-05-06 12:11 33.42922 -112.30407 5683 ft 209 kts 91°
2026-05-06 12:12 33.42895 -112.28713 5871 ft 205 kts 91°
2026-05-06 12:12 33.42876 -112.26967 5683 ft 212 kts 91°
2026-05-06 12:12 33.42867 -112.25179 5360 ft 219 kts 90°
2026-05-06 12:12 33.42870 -112.23346 4907 ft 222 kts 90°
2026-05-06 12:13 33.42881 -112.21495 4390 ft 224 kts 90°
2026-05-06 12:13 33.42893 -112.19623 3935 ft 222 kts 90°
2026-05-06 12:13 33.42895 -112.17777 3621 ft 219 kts 90°
2026-05-06 12:13 33.42893 -112.15989 3351 ft 212 kts 90°
2026-05-06 12:14 33.42895 -112.14301 2994 ft 195 kts 90°
2026-05-06 12:14 33.42894 -112.12722 2700 ft 182 kts 90°
2026-05-06 12:14 33.42895 -112.11351 2679 ft 156 kts 90°
2026-05-06 12:14 33.42893 -112.10055 2463 ft 159 kts 90°
2026-05-06 12:15 33.42886 -112.08725 2206 ft 159 kts 90°
2026-05-06 12:15 33.42886 -112.07416 1914 ft 157 kts 90°
2026-05-06 12:15 33.42890 -112.06123 1750 ft 153 kts 90°
2026-05-06 12:15 33.42893 -112.04863 1575 ft 152 kts 89°
2026-05-06 12:16 33.42895 -112.03585 1367 ft 152 kts 89°
2026-05-06 12:16 33.42892 -112.02345 1165 ft 145 kts 88°
2026-05-06 12:16 33.42892 -112.01365 1143 ft 82 kts 90°
2026-05-06 12:16 33.42890 -112.00990 1143 ft 34 kts 91°
2026-05-06 12:17 33.42883 -112.00742 1143 ft 24 kts 92°
2026-05-06 12:17 33.42831 -112.00625 1143 ft 15 kts 175°
2026-05-06 12:17 33.42777 -112.00687 1143 ft 17 kts 274°
2026-05-06 12:17 33.42779 -112.00881 1143 ft 24 kts 270°
2026-05-06 12:18 33.42779 -112.01091 1143 ft 25 kts 268°
2026-05-06 12:18 33.42710 -112.01198 1143 ft 8 kts 179°
2026-05-06 12:18 33.42703 -112.01198 1143 ft 0 kts 180°